When you browse on this site, cookies collect data to enhance your experience and personalize the content and advertising you see.
Visit our Privacy Policy to learn more. By continuing to use the site, you agree to this use of cookies and data.
  • In Belgium
  • List of Countries
  • For 7 days
  • Water Temperature
  • Satellite Maps
  • Weather Map
  • Weather Widgets
  • user-avatar
    Login

    Hourly Weather Kavarna

    Today, 23 March, Saturday

    Time Temperature Precipitation Wind Pressure Humidity
    00:00 +8°C° 0 mm 4 mps 768 mmHg 64%
    01:00 +10°C° 0 mm 4 mps 768 mmHg 62%
    02:00 +9°C° 0 mm 5 mps 767 mmHg 58%
    03:00 +9°C° 0 mm 5 mps 767 mmHg 64%
    04:00 +8°C° 0 mm 5 mps 767 mmHg 70%
    05:00 +8°C° 0 mm 5 mps 767 mmHg 77%
    06:00 +8°C° 0 mm 5 mps 767 mmHg 74%
    07:00 +9°C° 0 mm 6 mps 767 mmHg 71%
    08:00 +9°C° 0 mm 6 mps 767 mmHg 66%
    09:00 +10°C° 0 mm 6 mps 767 mmHg 60%
    10:00 +10°C° 0 mm 6 mps 767 mmHg 54%
    11:00 +11°C° 0 mm 6 mps 767 mmHg 48%
    12:00 +11°C° 0 mm 6 mps 767 mmHg 45%
    13:00 +12°C° 0 mm 5 mps 767 mmHg 42%
    14:00 +12°C° 0 mm 5 mps 767 mmHg 39%
    15:00 +12°C° 0 mm 5 mps 766 mmHg 39%
    16:00 +10°C° 0 mm 5 mps 766 mmHg 39%
    17:00 +10°C° 0 mm 5 mps 766 mmHg 39%
    18:00 +10°C° 0 mm 4 mps 767 mmHg 47%
    19:00 +7°C° 0 mm 4 mps 767 mmHg 55%
    20:00 +7°C° 0 mm 3 mps 767 mmHg 62%
    21:00 +7°C° 0 mm 2 mps 767 mmHg 63%
    22:00 +6°C° 0 mm 2 mps 767 mmHg 65%
    23:00 +7°C° 0 mm 1 mps 768 mmHg 66%

    Tomorrow, 24 March, Sunday

    Time Temperature Precipitation Wind Pressure Humidity
    00:00 +7°C° 0 mm 1 mps 768 mmHg 64%
    01:00 +6°C° 0 mm 2 mps 767 mmHg 63%
    02:00 +4°C° 0 mm 3 mps 767 mmHg 62%
    03:00 +4°C° 0 mm 3 mps 767 mmHg 60%
    04:00 +4°C° 0 mm 4 mps 767 mmHg 58%
    05:00 +4°C° 0 mm 4 mps 767 mmHg 56%
    06:00 +4°C° 0 mm 4 mps 767 mmHg 56%
    07:00 +5°C° 0 mm 5 mps 767 mmHg 55%
    08:00 +6°C° 0 mm 5 mps 767 mmHg 54%
    09:00 +7°C° 0 mm 4 mps 767 mmHg 51%
    10:00 +8°C° 0 mm 4 mps 767 mmHg 47%
    11:00 +10°C° 0 mm 4 mps 767 mmHg 44%
    12:00 +11°C° 0 mm 3 mps 767 mmHg 44%
    13:00 +11°C° 0 mm 3 mps 766 mmHg 44%
    14:00 +11°C° 0 mm 3 mps 766 mmHg 43%
    15:00 +11°C° 0 mm 3 mps 765 mmHg 48%
    16:00 +10°C° 0 mm 3 mps 765 mmHg 52%
    17:00 +9°C° 0 mm 3 mps 765 mmHg 56%
    18:00 +8°C° 0 mm 3 mps 765 mmHg 61%
    19:00 +8°C° 0 mm 3 mps 765 mmHg 65%
    20:00 +7°C° 0 mm 3 mps 765 mmHg 70%
    21:00 +7°C° 0 mm 3 mps 764 mmHg 70%
    22:00 +5°C° 0 mm 3 mps 764 mmHg 71%
    23:00 +5°C° 0 mm 3 mps 764 mmHg 71%

    Day after tomorrow, 25 March, Monday

    Time Temperature Precipitation Wind Pressure Humidity
    00:00 +5°C° 0 mm 3 mps 764 mmHg 71%
    01:00 +5°C° 0 mm 4 mps 764 mmHg 72%
    02:00 +5°C° 0 mm 4 mps 763 mmHg 72%
    03:00 +5°C° 0 mm 4 mps 763 mmHg 72%
    04:00 +5°C° 0 mm 4 mps 763 mmHg 72%
    05:00 +5°C° 0 mm 4 mps 762 mmHg 72%
    06:00 +6°C° 0 mm 4 mps 762 mmHg 69%
    07:00 +7°C° 0 mm 4 mps 762 mmHg 65%
    08:00 +8°C° 0 mm 4 mps 762 mmHg 62%
    09:00 +10°C° 0 mm 4 mps 761 mmHg 57%
    10:00 +12°C° 0 mm 4 mps 761 mmHg 53%
    11:00 +13°C° 0 mm 5 mps 761 mmHg 48%
    12:00 +13°C° 0 mm 5 mps 760 mmHg 48%
    13:00 +13°C° 0 mm 6 mps 760 mmHg 49%
    14:00 +14°C° 0 mm 7 mps 759 mmHg 50%
    15:00 +12°C° 0 mm 7 mps 759 mmHg 53%
    16:00 +11°C° 0 mm 6 mps 758 mmHg 57%
    17:00 +10°C° 0 mm 6 mps 758 mmHg 61%
    18:00 +9°C° 0 mm 6 mps 758 mmHg 65%
    19:00 +9°C° 0 mm 6 mps 758 mmHg 68%
    20:00 +8°C° 0 mm 6 mps 758 mmHg 72%
    21:00 +8°C° 0 mm 6 mps 758 mmHg 74%
    22:00 +8°C° 0 mm 6 mps 758 mmHg 76%
    23:00 +8°C° 0 mm 6 mps 758 mmHg 77%

    26 March, Tuesday

    Time Temperature Precipitation Wind Pressure Humidity
    00:00 +7°C° 0 mm 6 mps 758 mmHg 80%
    01:00 +7°C° 0 mm 6 mps 758 mmHg 82%
    02:00 +7°C° 0 mm 6 mps 758 mmHg 84%
    03:00 +7°C° 0 mm 5 mps 758 mmHg 85%
    04:00 +7°C° 0 mm 5 mps 758 mmHg 86%
    05:00 +7°C° 0 mm 5 mps 758 mmHg 87%
    06:00 +8°C° 0 mm 5 mps 758 mmHg 83%
    07:00 +8°C° 0 mm 5 mps 758 mmHg 79%
    08:00 +9°C° 0 mm 5 mps 758 mmHg 75%
    09:00 +12°C° 0 mm 4 mps 759 mmHg 69%
    10:00 +13°C° 0 mm 4 mps 759 mmHg 62%
    11:00 +14°C° 0 mm 4 mps 759 mmHg 56%
    12:00 +15°C° 0 mm 4 mps 759 mmHg 55%
    13:00 +15°C° 0 mm 4 mps 759 mmHg 54%
    14:00 +17°C° 0 mm 3 mps 760 mmHg 52%
    15:00 +14°C° 0 mm 5 mps 760 mmHg 61%
    16:00 +11°C° 0 mm 8 mps 760 mmHg 69%
    17:00 +8°C° 0 mm 10 mps 761 mmHg 77%
    18:00 +9°C° 0.1 mm 8 mps 761 mmHg 77%
    19:00 +8°C° 0.1 mm 7 mps 762 mmHg 76%
    20:00 +8°C° 0.1 mm 6 mps 763 mmHg 76%
    21:00 +8°C° 0.2 mm 6 mps 763 mmHg 74%
    22:00 +8°C° 0.2 mm 6 mps 764 mmHg 73%
    23:00 +8°C° 0.2 mm 6 mps 764 mmHg 71%

    27 March, Wednesday

    Time Temperature Precipitation Wind Pressure Humidity
    00:00 +7°C° 0 mm 6 mps 764 mmHg 69%
    01:00 +6°C° 0 mm 7 mps 765 mmHg 68%
    02:00 +5°C° 0 mm 8 mps 765 mmHg 66%
    03:00 +5°C° 0 mm 8 mps 765 mmHg 66%
    04:00 +4°C° 0 mm 8 mps 765 mmHg 65%
    05:00 +4°C° 0 mm 8 mps 766 mmHg 65%
    06:00 +4°C° 0 mm 7 mps 766 mmHg 62%
    07:00 +4°C° 0 mm 7 mps 767 mmHg 59%
    08:00 +5°C° 0 mm 6 mps 767 mmHg 56%
    09:00 +7°C° 0 mm 6 mps 768 mmHg 52%
    10:00 +8°C° 0 mm 5 mps 768 mmHg 47%
    11:00 +9°C° 0 mm 5 mps 768 mmHg 43%
    12:00 +9°C° 0 mm 5 mps 768 mmHg 42%
    13:00 +10°C° 0 mm 4 mps 768 mmHg 42%
    14:00 +11°C° 0 mm 4 mps 768 mmHg 41%
    15:00 +10°C° 0 mm 4 mps 768 mmHg 43%
    16:00 +10°C° 0 mm 4 mps 768 mmHg 45%
    17:00 +8°C° 0 mm 4 mps 768 mmHg 47%
    18:00 +8°C° 0 mm 3 mps 769 mmHg 52%
    19:00 +7°C° 0 mm 3 mps 769 mmHg 57%
    20:00 +6°C° 0 mm 2 mps 770 mmHg 61%
    21:00 +5°C° 0 mm 3 mps 770 mmHg 62%
    22:00 +5°C° 0 mm 3 mps 770 mmHg 62%
    23:00 +5°C° 0 mm 4 mps 770 mmHg 62%

    28 March, Thursday

    Time Temperature Precipitation Wind Pressure Humidity
    00:00 +5°C° 0 mm 5 mps 770 mmHg 60%
    01:00 +5°C° 0 mm 5 mps 770 mmHg 59%
    02:00 +4°C° 0 mm 6 mps 771 mmHg 57%
    03:00 +4°C° 0 mm 6 mps 771 mmHg 58%
    04:00 +3°C° 0 mm 6 mps 771 mmHg 60%
    05:00 +3°C° 0 mm 6 mps 771 mmHg 61%
    06:00 +3°C° 0 mm 6 mps 771 mmHg 59%
    07:00 +4°C° 0 mm 6 mps 772 mmHg 58%
    08:00 +4°C° 0 mm 7 mps 772 mmHg 56%
    09:00 +5°C° 0 mm 7 mps 772 mmHg 52%
    10:00 +5°C° 0 mm 7 mps 772 mmHg 49%
    11:00 +6°C° 0 mm 7 mps 773 mmHg 45%
    12:00 +6°C° 0 mm 7 mps 772 mmHg 44%
    13:00 +6°C° 0 mm 7 mps 772 mmHg 43%
    14:00 +6°C° 0 mm 8 mps 772 mmHg 42%
    15:00 +6°C° 0 mm 7 mps 772 mmHg 44%
    16:00 +5°C° 0 mm 7 mps 772 mmHg 45%
    17:00 +5°C° 0 mm 7 mps 772 mmHg 46%
    18:00 +4°C° 0 mm 7 mps 772 mmHg 49%
    19:00 +4°C° 0 mm 6 mps 772 mmHg 52%
    20:00 +3°C° 0 mm 6 mps 772 mmHg 55%
    21:00 +3°C° 0 mm 5 mps 772 mmHg 56%
    22:00 +3°C° 0 mm 5 mps 772 mmHg 56%
    23:00 +3°C° 0 mm 5 mps 772 mmHg 57%
    Show more